| time (UTC) | temp F | wind direction | speed MPH | gust MPH | rain 1hr in | rain 24hr in | rain mn in | humidity % | barometer mb |
| 20260506024000 | 74 | 193 | 4.0 | 10.0 | 0.00 | 0.03 | 0.03 | 50 | 1009.6 |
| 20260506023500 | 74 | 194 | 4.0 | 10.0 | 0.00 | 0.03 | 0.03 | 49 | 1009.6 |
| 20260506023000 | 74 | 198 | 4.0 | 10.0 | 0.00 | 0.03 | 0.03 | 49 | 1009.7 |
| 20260506022521 | 74 | 202 | 4.0 | 10.0 | 0.00 | 0.03 | 0.03 | 49 | 1009.7 |
| 20260506022000 | 74 | 195 | 4.0 | 10.0 | 0.00 | 0.03 | 0.03 | 48 | 1009.7 |
| 20260506021500 | 74 | 193 | 4.0 | 10.0 | 0.00 | 0.03 | 0.03 | 48 | 1009.7 |
| 20260506021000 | 74 | 187 | 4.0 | 9.0 | 0.00 | 0.03 | 0.03 | 48 | 1009.7 |
| 20260506020500 | 74 | 186 | 3.0 | 6.0 | 0.00 | 0.03 | 0.03 | 48 | 1009.6 |
| 20260506020000 | 75 | 187 | 3.0 | 6.0 | 0.00 | 0.03 | 0.03 | 47 | 1009.6 |
| 20260506015521 | 75 | 187 | 3.0 | 7.0 | 0.00 | 0.03 | 0.03 | 47 | 1009.6 |
| 20260506015000 | 75 | 189 | 4.0 | 7.0 | 0.00 | 0.03 | 0.03 | 46 | 1009.6 |
| 20260506014500 | 75 | 185 | 4.0 | 6.0 | 0.00 | 0.03 | 0.03 | 46 | 1009.5 |
| 20260506014000 | 75 | 186 | 4.0 | 9.0 | 0.00 | 0.03 | 0.03 | 46 | 1009.5 |
| 20260506013500 | 76 | 196 | 4.0 | 10.0 | 0.00 | 0.03 | 0.03 | 45 | 1009.4 |
| 20260506013000 | 76 | 197 | 4.0 | 10.0 | 0.00 | 0.03 | 0.03 | 44 | 1009.4 |
| 20260506012500 | 76 | 200 | 5.0 | 11.0 | 0.00 | 0.03 | 0.03 | 44 | 1009.3 |
| 20260506012000 | 76 | 202 | 6.0 | 11.0 | 0.00 | 0.03 | 0.03 | 44 | 1009.2 |
| 20260506011522 | 77 | 200 | 5.0 | 12.0 | 0.00 | 0.03 | 0.03 | 44 | 1009.1 |
| 20260506011000 | 76 | 200 | 5.0 | 12.0 | 0.00 | 0.03 | 0.03 | 44 | 1009.1 |
| 20260506010500 | 77 | 196 | 5.0 | 11.0 | 0.00 | 0.03 | 0.03 | 44 | 1009.0 |
| 20260506010001 | 77 | 196 | 4.0 | 12.0 | 0.00 | 0.03 | 0.03 | 43 | 1008.9 |
| 20260506005500 | 77 | 200 | 5.0 | 12.0 | 0.00 | 0.03 | 0.03 | 43 | 1008.9 |
| 20260506005022 | 77 | 197 | 5.0 | 11.0 | 0.00 | 0.03 | 0.03 | 43 | 1008.8 |
| 20260506004522 | 77 | 193 | 5.0 | 11.0 | 0.00 | 0.03 | 0.03 | 43 | 1008.8 |
| 20260506004001 | 77 | 196 | 5.0 | 11.0 | 0.00 | 0.03 | 0.03 | 43 | 1008.9 |
| 20260506003501 | 77 | 196 | 5.0 | 11.0 | 0.00 | 0.03 | 0.03 | 43 | 1008.7 |
| 20260506003001 | 77 | 199 | 5.0 | 11.0 | 0.00 | 0.03 | 0.03 | 43 | 1008.6 |
| 20260506002501 | 77 | 199 | 4.0 | 11.0 | 0.00 | 0.03 | 0.03 | 43 | 1008.6 |
| 20260506002001 | 77 | 199 | 5.0 | 12.0 | 0.00 | 0.03 | 0.03 | 42 | 1008.5 |
| 20260506001501 | 78 | 200 | 5.0 | 12.0 | 0.00 | 0.03 | 0.03 | 42 | 1008.4 |
| 20260506001001 | 78 | 198 | 4.0 | 12.0 | 0.00 | 0.03 | 0.03 | 43 | 1008.5 |
| 20260506000501 | 78 | 198 | 4.0 | 12.0 | 0.00 | 0.03 | 0.03 | 43 | 1008.5 |
| 20260506000001 | 78 | 199 | 4.0 | 12.0 | 0.00 | 0.03 | 0.03 | 43 | 1008.5 |
| 20260505235522 | 78 | 196 | 5.0 | 12.0 | 0.00 | 0.03 | 0.03 | 42 | 1008.5 |
| 20260505235001 | 78 | 190 | 4.0 | 11.0 | 0.00 | 0.03 | 0.03 | 42 | 1008.5 |
| 20260505234522 | 78 | 193 | 5.0 | 11.0 | 0.00 | 0.03 | 0.03 | 42 | 1008.4 |
| 20260505234001 | 79 | 197 | 6.0 | 14.0 | 0.00 | 0.03 | 0.03 | 42 | 1008.3 |
| 20260505233501 | 79 | 196 | 6.0 | 14.0 | 0.00 | 0.03 | 0.03 | 41 | 1008.3 |
| 20260505233001 | 79 | 195 | 6.0 | 12.0 | 0.00 | 0.03 | 0.03 | 41 | 1008.3 |
| 20260505232501 | 79 | 195 | 5.0 | 11.0 | 0.00 | 0.03 | 0.03 | 41 | 1008.3 |
| 20260505232001 | 79 | 203 | 5.0 | 10.0 | 0.00 | 0.03 | 0.03 | 42 | 1008.2 |
| 20260505231501 | 79 | 207 | 5.0 | 14.0 | 0.00 | 0.03 | 0.03 | 40 | 1008.2 |
| 20260505231001 | 79 | 202 | 6.0 | 14.0 | 0.00 | 0.03 | 0.03 | 40 | 1008.2 |
| 20260505230501 | 80 | 197 | 6.0 | 17.0 | 0.00 | 0.03 | 0.03 | 40 | 1008.1 |
| 20260505230001 | 80 | 195 | 6.0 | 17.0 | 0.00 | 0.03 | 0.03 | 40 | 1008.1 |
| 20260505225501 | 80 | 197 | 6.0 | 15.0 | 0.00 | 0.03 | 0.03 | 40 | 1008.0 |
| 20260505225001 | 80 | 199 | 6.0 | 17.0 | 0.00 | 0.03 | 0.03 | 41 | 1008.1 |
| 20260505224501 | 80 | 202 | 6.0 | 17.0 | 0.00 | 0.03 | 0.03 | 40 | 1008.1 |
| 20260505224001 | 80 | 208 | 6.0 | 16.0 | 0.00 | 0.03 | 0.03 | 41 | 1008.0 |
| 20260505223501 | 81 | 202 | 8.0 | 16.0 | 0.00 | 0.03 | 0.03 | 40 | 1008.0 |
| 20260505223001 | 81 | 197 | 7.0 | 15.0 | 0.00 | 0.03 | 0.03 | 39 | 1008.0 |
| 20260505222501 | 81 | 204 | 6.0 | 14.0 | 0.00 | 0.03 | 0.03 | 39 | 1008.0 |
| 20260505222002 | 82 | 209 | 5.0 | 14.0 | 0.00 | 0.03 | 0.03 | 37 | 1007.9 |
| 20260505221502 | 82 | 203 | 6.0 | 17.0 | 0.00 | 0.03 | 0.03 | 37 | 1007.9 |
| 20260505221002 | 82 | 199 | 7.0 | 17.0 | 0.00 | 0.03 | 0.03 | 36 | 1007.8 |
| 20260505220502 | 82 | 196 | 7.0 | 17.0 | 0.00 | 0.03 | 0.03 | 37 | 1007.6 |
| 20260505220002 | 82 | 200 | 7.0 | 18.0 | 0.00 | 0.03 | 0.03 | 37 | 1007.7 |
| 20260505215502 | 82 | 202 | 6.0 | 18.0 | 0.00 | 0.03 | 0.03 | 37 | 1007.7 |
| 20260505215002 | 82 | 209 | 5.0 | 15.0 | 0.00 | 0.03 | 0.03 | 38 | 1007.8 |
| 20260505214502 | 82 | 210 | 6.0 | 16.0 | 0.00 | 0.03 | 0.03 | 37 | 1007.8 |
| 20260505214002 | 82 | 199 | 6.0 | 16.0 | 0.00 | 0.03 | 0.03 | 37 | 1007.9 |
| 20260505213502 | 82 | 201 | 6.0 | 19.0 | 0.00 | 0.03 | 0.03 | 39 | 1007.8 |
| 20260505213002 | 82 | 200 | 6.0 | 19.0 | 0.00 | 0.03 | 0.03 | 39 | 1007.7 |
| 20260505212502 | 82 | 196 | 7.0 | 13.0 | 0.00 | 0.03 | 0.03 | 40 | 1007.8 |
| 20260505212002 | 82 | 196 | 6.0 | 13.0 | 0.00 | 0.03 | 0.03 | 39 | 1007.7 |
| 20260505211502 | 83 | 194 | 5.0 | 13.0 | 0.00 | 0.03 | 0.03 | 38 | 1007.7 |
| 20260505211002 | 82 | 195 | 7.0 | 18.0 | 0.00 | 0.03 | 0.03 | 37 | 1007.7 |
| 20260505210523 | 82 | 198 | 7.0 | 18.0 | 0.00 | 0.03 | 0.03 | 36 | 1007.6 |
| 20260505210024 | 82 | 208 | 8.0 | 20.0 | 0.00 | 0.03 | 0.03 | 37 | 1007.6 |
| 20260505205502 | 82 | 211 | 7.0 | 20.0 | 0.00 | 0.03 | 0.03 | 36 | 1007.6 |
| 20260505205023 | 83 | 208 | 6.0 | 18.0 | 0.00 | 0.03 | 0.03 | 38 | 1007.6 |
| 20260505204502 | 83 | 205 | 6.0 | 15.0 | 0.00 | 0.03 | 0.03 | 37 | 1007.5 |
| 20260505204002 | 82 | 200 | 7.0 | 18.0 | 0.00 | 0.03 | 0.03 | 38 | 1007.6 |
| 20260505203502 | 82 | 202 | 8.0 | 18.0 | 0.00 | 0.03 | 0.03 | 37 | 1007.6 |
| 20260505203002 | 83 | 204 | 7.0 | 16.0 | 0.00 | 0.03 | 0.03 | 38 | 1007.6 |
| 20260505202502 | 83 | 199 | 6.0 | 16.0 | 0.00 | 0.03 | 0.03 | 37 | 1007.6 |
| 20260505202002 | 83 | 196 | 6.0 | 17.0 | 0.00 | 0.03 | 0.03 | 38 | 1007.5 |
| 20260505201502 | 83 | 197 | 7.0 | 17.0 | 0.00 | 0.03 | 0.03 | 39 | 1007.5 |
| 20260505201002 | 83 | 205 | 5.0 | 13.0 | 0.00 | 0.03 | 0.03 | 40 | 1007.5 |
| 20260505200502 | 82 | 207 | 6.0 | 19.0 | 0.00 | 0.03 | 0.03 | 40 | 1007.7 |
| 20260505200024 | 82 | 201 | 7.0 | 19.0 | 0.00 | 0.03 | 0.03 | 39 | 1007.7 |
| 20260505195502 | 83 | 203 | 7.0 | 14.0 | 0.00 | 0.03 | 0.03 | 39 | 1007.6 |
| 20260505195024 | 83 | 208 | 6.0 | 14.0 | 0.00 | 0.03 | 0.03 | 40 | 1007.8 |
| 20260505194503 | 83 | 224 | 5.0 | 17.0 | 0.00 | 0.03 | 0.03 | 41 | 1007.8 |
| 20260505194024 | 83 | 206 | 6.0 | 19.0 | 0.00 | 0.03 | 0.03 | 39 | 1007.7 |
| 20260505193503 | 83 | 199 | 7.0 | 19.0 | 0.00 | 0.03 | 0.03 | 39 | 1007.8 |
| 20260505193003 | 83 | 205 | 6.0 | 16.0 | 0.00 | 0.03 | 0.03 | 42 | 1007.9 |
| 20260505192503 | 84 | 210 | 6.0 | 15.0 | 0.00 | 0.03 | 0.03 | 39 | 1007.8 |
| 20260505192003 | 84 | 207 | 6.0 | 17.0 | 0.00 | 0.03 | 0.03 | 40 | 1007.9 |
| 20260505191503 | 84 | 199 | 6.0 | 17.0 | 0.00 | 0.03 | 0.03 | 38 | 1007.7 |
| 20260505191003 | 83 | 193 | 6.0 | 15.0 | 0.00 | 0.03 | 0.03 | 39 | 1007.7 |
| 20260505190503 | 84 | 197 | 6.0 | 14.0 | 0.00 | 0.03 | 0.03 | 39 | 1007.9 |
| 20260505190003 | 84 | 205 | 5.0 | 13.0 | 0.00 | 0.03 | 0.03 | 38 | 1008.1 |
| 20260505185503 | 84 | 224 | 4.0 | 12.0 | 0.00 | 0.03 | 0.03 | 37 | 1008.1 |
| 20260505185003 | 84 | 228 | 4.0 | 12.0 | 0.00 | 0.03 | 0.03 | 36 | 1008.0 |
| 20260505184503 | 84 | 217 | 4.0 | 12.0 | 0.00 | 0.03 | 0.03 | 38 | 1008.3 |
| 20260505184003 | 84 | 221 | 4.0 | 12.0 | 0.00 | 0.03 | 0.03 | 37 | 1008.2 |
| 20260505183503 | 84 | 222 | 4.0 | 12.0 | 0.00 | 0.03 | 0.03 | 37 | 1008.4 |
| 20260505183003 | 84 | 222 | 4.0 | 12.0 | 0.00 | 0.03 | 0.03 | 36 | 1008.4 |
| 20260505182503 | 84 | 231 | 4.0 | 12.0 | 0.00 | 0.03 | 0.03 | 38 | 1008.4 |
| 20260505182000 | 84 | 258 | 4.0 | 11.0 | 0.00 | 0.03 | 0.03 | 37 | 1008.4 |
| 20260505181459 | 84 | 244 | 4.0 | 11.0 | 0.00 | 0.03 | 0.03 | 37 | 1008.5 |
| 20260505180959 | 84 | 218 | 4.0 | 11.0 | 0.00 | 0.03 | 0.03 | 36 | 1008.5 |
| 20260505180521 | 84 | 211 | 3.0 | 11.0 | 0.00 | 0.03 | 0.03 | 39 | 1008.5 |
| 20260505180000 | 84 | 210 | 4.0 | 13.0 | 0.00 | 0.03 | 0.03 | 37 | 1008.5 |
| 20260505175500 | 83 | 222 | 4.0 | 13.0 | 0.00 | 0.03 | 0.03 | 39 | 1008.9 |
| 20260505175000 | 83 | 243 | 4.0 | 13.0 | 0.00 | 0.03 | 0.03 | 39 | 1009.1 |
| 20260505174500 | 84 | 238 | 4.0 | 10.0 | 0.00 | 0.03 | 0.03 | 42 | 1009.0 |
| 20260505174000 | 83 | 214 | 4.0 | 13.0 | 0.00 | 0.03 | 0.03 | 41 | 1009.0 |
| 20260505173500 | 82 | 203 | 5.0 | 16.0 | 0.00 | 0.03 | 0.03 | 44 | 1008.9 |
| 20260505173000 | 82 | 206 | 5.0 | 16.0 | 0.00 | 0.03 | 0.03 | 38 | 1009.0 |
| 20260505172500 | 83 | 221 | 4.0 | 15.0 | 0.00 | 0.03 | 0.03 | 40 | 1009.0 |
| 20260505172000 | 82 | 225 | 4.0 | 11.0 | 0.00 | 0.03 | 0.03 | 41 | 1009.2 |
| 20260505171500 | 82 | 224 | 4.0 | 12.0 | 0.00 | 0.03 | 0.03 | 43 | 1009.1 |
| 20260505171000 | 82 | 213 | 3.0 | 12.0 | 0.00 | 0.03 | 0.03 | 40 | 1009.1 |
| 20260505170500 | 82 | 216 | 3.0 | 10.0 | 0.00 | 0.03 | 0.03 | 44 | 1009.3 |
| 20260505170000 | 82 | 243 | 3.0 | 8.0 | 0.00 | 0.03 | 0.03 | 46 | 1009.3 |
| 20260505165500 | 82 | 255 | 3.0 | 8.0 | 0.00 | 0.03 | 0.03 | 42 | 1009.4 |
| 20260505165000 | 81 | 225 | 3.0 | 7.0 | 0.00 | 0.03 | 0.03 | 45 | 1009.5 |
| 20260505164500 | 81 | 202 | 3.0 | 7.0 | 0.00 | 0.03 | 0.03 | 45 | 1009.6 |
| 20260505164000 | 81 | 208 | 4.0 | 12.0 | 0.00 | 0.03 | 0.03 | 46 | 1009.8 |
| 20260505163500 | 80 | 198 | 5.0 | 15.0 | 0.00 | 0.03 | 0.03 | 51 | 1009.9 |
| 20260505163000 | 80 | 195 | 4.0 | 15.0 | 0.00 | 0.03 | 0.03 | 45 | 1010.2 |
| 20260505162500 | 80 | 209 | 4.0 | 12.0 | 0.00 | 0.03 | 0.03 | 48 | 1010.1 |
| 20260505162000 | 80 | 209 | 4.0 | 13.0 | 0.00 | 0.03 | 0.03 | 48 | 1010.2 |
| 20260505161500 | 80 | 197 | 3.0 | 13.0 | 0.00 | 0.03 | 0.03 | 46 | 1010.2 |
| 20260505161000 | 79 | 201 | 3.0 | 8.0 | 0.00 | 0.03 | 0.03 | 48 | 1010.1 |
| 20260505160500 | 79 | 208 | 3.0 | 8.0 | 0.00 | 0.03 | 0.03 | 49 | 1010.2 |
| 20260505153022 | 78 | 207 | 3.0 | 10.0 | 0.00 | 0.03 | 0.03 | 49 | 1010.3 |
| 20260505152501 | 78 | 242 | 2.0 | 8.0 | 0.00 | 0.03 | 0.03 | 50 | 1010.4 |
| 20260505152001 | 77 | 227 | 3.0 | 8.0 | 0.00 | 0.03 | 0.03 | 53 | 1010.5 |
| 20260505151501 | 77 | 237 | 3.0 | 8.0 | 0.00 | 0.03 | 0.03 | 52 | 1010.5 |
| 20260505151001 | 76 | 286 | 3.0 | 8.0 | 0.00 | 0.03 | 0.03 | 52 | 1010.5 |
| 20260505150501 | 76 | 282 | 3.0 | 8.0 | 0.00 | 0.03 | 0.03 | 53 | 1010.6 |
| 20260505140523 | 70 | 204 | 3.0 | 8.0 | 0.00 | 0.03 | 0.03 | 60 | 1011.1 |
| 20260505125002 | 62 | 297 | 1.0 | 4.0 | 0.00 | 0.03 | 0.03 | 81 | 1011.5 |
| 20260505124502 | 61 | 297 | 1.0 | 3.0 | 0.00 | 0.03 | 0.03 | 82 | 1011.5 |
| 20260505124002 | 61 | 45 | 1.0 | 3.0 | 0.00 | 0.03 | 0.03 | 83 | 1011.5 |
| 20260505123502 | 61 | 73 | 1.0 | 3.0 | 0.00 | 0.03 | 0.03 | 83 | 1011.3 |
| 20260505123002 | 61 | 79 | 1.0 | 3.0 | 0.00 | 0.03 | 0.03 | 84 | 1011.4 |
| 20260505122502 | 60 | 92 | 1.0 | 3.0 | 0.00 | 0.03 | 0.03 | 85 | 1011.2 |
| 20260505122023 | 60 | 83 | 1.0 | 2.0 | 0.00 | 0.03 | 0.03 | 84 | 1011.2 |
| 20260505121502 | 59 | 70 | 1.0 | 2.0 | 0.00 | 0.03 | 0.03 | 85 | 1011.3 |
| 20260505121002 | 59 | 72 | 1.0 | 2.0 | 0.00 | 0.03 | 0.03 | 86 | 1011.3 |
| 20260505120503 | 59 | 289 | 0.0 | 2.0 | 0.00 | 0.03 | 0.03 | 87 | 1011.4 |
| 20260505120003 | 58 | 322 | 1.0 | 2.0 | 0.00 | 0.03 | 0.03 | 87 | 1011.4 |
| 20260505115524 | 58 | 328 | 1.0 | 2.0 | 0.00 | 0.03 | 0.03 | 88 | 1011.3 |
| 20260505115002 | 58 | 357 | 1.0 | 2.0 | 0.00 | 0.03 | 0.03 | 88 | 1011.4 |
| 20260505114502 | 58 | 51 | 1.0 | 2.0 | 0.00 | 0.03 | 0.03 | 89 | 1011.2 |
| 20260505114002 | 57 | 2 | 1.0 | 1.0 | 0.00 | 0.03 | 0.03 | 89 | 1011.1 |
| 20260505113502 | 56 | 290 | 1.0 | 1.0 | 0.00 | 0.03 | 0.03 | 89 | 1011.1 |
| 20260505113002 | 56 | 187 | 0.0 | 1.0 | 0.00 | 0.03 | 0.03 | 89 | 1011.1 |
| 20260505112502 | 56 | 211 | 0.0 | 1.0 | 0.00 | 0.03 | 0.03 | 90 | 1011.1 |
| 20260505112002 | 56 | 28 | 0.0 | 2.0 | 0.00 | 0.03 | 0.03 | 90 | 1011.0 |
| 20260505111502 | 55 | 54 | 1.0 | 2.0 | 0.00 | 0.03 | 0.03 | 90 | 1011.0 |
| 20260505111002 | 55 | 91 | 0.0 | 1.0 | 0.00 | 0.03 | 0.03 | 90 | 1011.0 |
| 20260505110524 | 54 | 128 | 0.0 | 1.0 | 0.00 | 0.03 | 0.03 | 90 | 1011.1 |
| 20260505102003 | 52 | 110 | 0.0 | 1.0 | 0.00 | 0.03 | 0.03 | 88 | 1010.9 |
| 20260505101503 | 52 | 258 | 0.0 | 1.0 | 0.00 | 0.03 | 0.03 | 87 | 1010.7 |
| 20260505101024 | 52 | 101 | 0.0 | 2.0 | 0.00 | 0.03 | 0.03 | 87 | 1010.7 |
| 20260505100503 | 53 | 90 | 1.0 | 2.0 | 0.00 | 0.03 | 0.03 | 87 | 1010.6 |
| 20260505100003 | 53 | 85 | 1.0 | 2.0 | 0.00 | 0.03 | 0.03 | 87 | 1010.7 |
| 20260505095503 | 53 | 73 | 0.0 | 2.0 | 0.00 | 0.03 | 0.03 | 87 | 1010.7 |
| 20260505095003 | 53 | 105 | 0.0 | 1.0 | 0.00 | 0.03 | 0.03 | 87 | 1010.6 |
| 20260505094524 | 53 | 151 | 0.0 | 2.0 | 0.00 | 0.03 | 0.03 | 87 | 1010.6 |
| 20260505094003 | 53 | 141 | 1.0 | 2.0 | 0.00 | 0.03 | 0.03 | 87 | 1010.7 |
| 20260505093503 | 54 | 123 | 1.0 | 2.0 | 0.02 | 0.03 | 0.03 | 87 | 1010.6 |
| 20260505093003 | 54 | 128 | 1.0 | 2.0 | 0.03 | 0.03 | 0.03 | 87 | 1010.8 |
| 20260505092503 | 54 | 147 | 1.0 | 2.0 | 0.03 | 0.03 | 0.03 | 87 | 1010.7 |
| 20260505092003 | 54 | 130 | 1.0 | 3.0 | 0.03 | 0.03 | 0.03 | 87 | 1010.7 |
| 20260505091459 | 54 | 107 | 1.0 | 3.0 | 0.03 | 0.03 | 0.03 | 86 | 1010.8 |
| 20260505090959 | 54 | 135 | 1.0 | 2.0 | 0.03 | 0.03 | 0.03 | 86 | 1010.9 |
| 20260505090459 | 54 | 150 | 1.0 | 4.0 | 0.03 | 0.03 | 0.03 | 86 | 1010.9 |
| 20260505090000 | 54 | 144 | 1.0 | 4.0 | 0.03 | 0.03 | 0.03 | 86 | 1010.9 |
| 20260505085500 | 55 | 112 | 1.0 | 3.0 | 0.03 | 0.03 | 0.03 | 85 | 1011.0 |
| 20260505085000 | 55 | 108 | 1.0 | 3.0 | 0.03 | 0.03 | 0.03 | 84 | 1011.0 |
| 20260505084521 | 55 | 92 | 1.0 | 3.0 | 0.03 | 0.03 | 0.03 | 84 | 1010.8 |
| 20260505084000 | 55 | 293 | 1.0 | 6.0 | 0.03 | 0.03 | 0.03 | 82 | 1011.1 |
| 20260505083521 | 55 | 103 | 2.0 | 6.0 | 0.01 | 0.01 | 0.01 | 82 | 1011.0 |
| 20260505083000 | 55 | 97 | 1.0 | 3.0 | 0.00 | 0.00 | 0.00 | 79 | 1010.5 |
| 20260505082500 | 55 | 321 | 1.0 | 2.0 | 0.00 | 0.00 | 0.00 | 77 | 1010.9 |
| 20260505082000 | 55 | 242 | 1.0 | 2.0 | 0.00 | 0.00 | 0.00 | 76 | 1011.1 |
| 20260505081500 | 55 | 190 | 1.0 | 2.0 | 0.00 | 0.00 | 0.00 | 76 | 1010.7 |
| 20260505081000 | 55 | 274 | 1.0 | 3.0 | 0.00 | 0.00 | 0.00 | 76 | 1010.7 |
| 20260505080500 | 55 | 268 | 1.0 | 3.0 | 0.00 | 0.00 | 0.00 | 77 | 1010.7 |
| 20260505080000 | 55 | 230 | 0.0 | 1.0 | 0.00 | 0.00 | 0.00 | 76 | 1010.4 |
| 20260505075500 | 55 | 93 | 0.0 | 2.0 | 0.00 | 0.00 | 0.00 | 76 | 1010.3 |
| 20260505075000 | 55 | 98 | 0.0 | 2.0 | 0.00 | 0.00 | 0.00 | 76 | 1010.2 |
| 20260505074500 | 55 | 109 | 0.0 | 1.0 | 0.00 | 0.00 | 0.00 | 75 | 1010.2 |
| 20260505074000 | 55 | 102 | 0.0 | 2.0 | 0.00 | 0.00 | 0.00 | 75 | 1010.1 |
| 20260505073522 | 55 | 119 | 0.0 | 2.0 | 0.00 | 0.00 | 0.00 | 75 | 1010.1 |
| 20260505073000 | 55 | 130 | 0.0 | 2.0 | 0.00 | 0.00 | 0.00 | 75 | 1010.3 |
| 20260505072500 | 55 | 112 | 0.0 | 1.0 | 0.00 | 0.00 | 0.00 | 73 | 1010.2 |
| 20260505072022 | 55 | 117 | 0.0 | 1.0 | 0.00 | 0.00 | 0.00 | 73 | 1010.3 |
| 20260505071500 | 56 | 118 | 0.0 | 1.0 | 0.00 | 0.00 | 0.00 | 72 | 1010.3 |
| 20260505071000 | 56 | 104 | 0.0 | 2.0 | 0.00 | 0.00 | 0.00 | 72 | 1010.2 |
| 20260505070500 | 56 | 94 | 0.0 | 2.0 | 0.00 | 0.00 | 0.00 | 72 | 1010.3 |
| 20260505070001 | 56 | 48 | 0.0 | 2.0 | 0.00 | 0.00 | 0.00 | 71 | 1010.3 |
| 20260505065501 | 56 | 49 | 0.0 | 1.0 | 0.00 | 0.00 | 0.00 | 71 | 1010.3 |
| 20260505065001 | 56 | 138 | 0.0 | 1.0 | 0.00 | 0.00 | 0.00 | 70 | 1010.3 |
| 20260505064522 | 56 | 142 | 0.0 | 1.0 | 0.00 | 0.00 | 0.00 | 70 | 1010.3 |
| 20260505064022 | 56 | 165 | 0.0 | 1.0 | 0.00 | 0.00 | 0.00 | 70 | 1010.3 |
| 20260505063501 | 57 | 81 | 0.0 | 1.0 | 0.00 | 0.00 | 0.00 | 69 | 1010.3 |
| 20260505063001 | 57 | 52 | 0.0 | 2.0 | 0.00 | 0.00 | 0.00 | 69 | 1010.3 |
| 20260505062501 | 57 | 40 | 0.0 | 2.0 | 0.00 | 0.00 | 0.00 | 69 | 1010.4 |
| 20260505062001 | 57 | 66 | 0.0 | 2.0 | 0.00 | 0.00 | 0.00 | 68 | 1010.4 |
| 20260505061501 | 58 | 95 | 0.0 | 2.0 | 0.00 | 0.00 | 0.00 | 67 | 1010.4 |
| 20260505061001 | 58 | 33 | 0.0 | 1.0 | 0.00 | 0.00 | 0.00 | 66 | 1010.4 |
| 20260505060522 | 59 | 160 | 0.0 | 1.0 | 0.00 | 0.00 | 0.00 | 65 | 1010.3 |
| 20260505060001 | 59 | 97 | 0.0 | 2.0 | 0.00 | 0.00 | 0.00 | 62 | 1010.4 |
| 20260505055501 | 60 | 74 | 1.0 | 2.0 | 0.00 | 0.00 | 0.00 | 62 | 1010.4 |
| 20260505055001 | 60 | 64 | 0.0 | 2.0 | 0.00 | 0.00 | 0.00 | 61 | 1010.3 |
| 20260505054501 | 61 | 83 | 0.0 | 1.0 | 0.00 | 0.00 | 0.00 | 59 | 1010.3 |
| 20260505054001 | 62 | 91 | 0.0 | 1.0 | 0.00 | 0.00 | 0.00 | 58 | 1010.3 |
| 20260505053501 | 62 | 111 | 1.0 | 1.0 | 0.00 | 0.00 | 0.00 | 57 | 1010.3 |
| 20260505053001 | 62 | 158 | 1.0 | 3.0 | 0.00 | 0.00 | 0.00 | 56 | 1010.2 |
| 20260505052501 | 63 | 188 | 2.0 | 6.0 | 0.00 | 0.00 | 0.00 | 56 | 1010.2 |
| 20260505052001 | 63 | 195 | 2.0 | 6.0 | 0.00 | 0.00 | 0.00 | 56 | 1010.3 |
| 20260505051523 | 62 | 202 | 2.0 | 5.0 | 0.00 | 0.00 | 0.00 | 56 | 1010.3 |
| 20260505051001 | 62 | 207 | 2.0 | 5.0 | 0.00 | 0.00 | 0.00 | 57 | 1010.3 |
| 20260505050501 | 61 | 191 | 1.0 | 4.0 | 0.00 | 0.00 | 0.00 | 58 | 1010.3 |
| 20260505041501 | 60 | 107 | 0.0 | 1.0 | 0.00 | 0.00 | 0.00 | 60 | 1010.2 |
| 20260505041001 | 60 | 122 | 0.0 | 1.0 | 0.00 | 0.00 | 0.00 | 59 | 1010.2 |
| 20260505040502 | 61 | 98 | 0.0 | 2.0 | 0.00 | 0.00 | 0.00 | 59 | 1010.1 |
| 20260505040004 | 62 | 68 | 1.0 | 2.0 | 0.00 | 0.00 | 0.00 | 58 | 1010.1 |
| 20260505035502 | 62 | 51 | 1.0 | 2.0 | 0.00 | 0.00 | 0.00 | 57 | 1009.9 |
| 20260505035002 | 63 | 51 | 1.0 | 2.0 | 0.00 | 0.00 | 0.00 | 56 | 1009.9 |
| 20260505034523 | 63 | 156 | 0.0 | 2.0 | 0.00 | 0.00 | 0.00 | 54 | 1010.0 |
| 20260505034024 | 64 | 180 | 1.0 | 4.0 | 0.00 | 0.00 | 0.00 | 53 | 1009.8 |
| 20260505033502 | 63 | 177 | 1.0 | 4.0 | 0.00 | 0.00 | 0.00 | 53 | 1009.9 |
| 20260505033002 | 63 | 145 | 1.0 | 3.0 | 0.00 | 0.00 | 0.00 | 54 | 1010.0 |
| 20260505032502 | 64 | 168 | 1.0 | 3.0 | 0.00 | 0.00 | 0.00 | 52 | 1010.1 |
| 20260505032002 | 64 | 168 | 1.0 | 3.0 | 0.00 | 0.00 | 0.00 | 52 | 1010.0 |
| 20260505031502 | 64 | 164 | 1.0 | 2.0 | 0.00 | 0.00 | 0.00 | 51 | 1010.1 |
| 20260505031002 | 65 | 180 | 1.0 | 2.0 | 0.00 | 0.00 | 0.00 | 51 | 1010.1 |
| 20260505030502 | 65 | 196 | 1.0 | 3.0 | 0.00 | 0.00 | 0.00 | 50 | 1010.1 |
| 20260505030002 | 66 | 188 | 1.0 | 3.0 | 0.00 | 0.00 | 0.00 | 49 | 1010.2 |
| 20260505025502 | 66 | 197 | 1.0 | 4.0 | 0.00 | 0.00 | 0.00 | 49 | 1010.2 |
| 20260505025002 | 66 | 196 | 2.0 | 4.0 | 0.00 | 0.00 | 0.00 | 48 | 1010.2 |
| 20260505024502 | 66 | 185 | 2.0 | 6.0 | 0.00 | 0.00 | 0.00 | 48 | 1010.2 |